Temp
67 71 71 70 58 55 50 57 65 63 61 67 69 66 60 61 59 54 69 71 72 71 73 74 73 74 74 74 74 74 75 75 74 74 74 74 73 73 73 73 73 74 75 75 74 74 73 72 71
71 73 70 63 51 47 52 62 60 64 69 72 72 70 65 60 66 66 67 72 72 72 72 73 73 73 74 74 74 74 75 74 74 74 73 73 73 73 72 72 72 73 74 74 74 73 72 71 70
70 74 65 58 50 45 52 62 63 67 70 72 67 70 67 62 66 67 70 73 72 70 71 72 72 72 73 73 73 73 73 73 73 73 73 73 73 73 72 72 72 73 73 74 73 72 71 70 69
69 68 63 55 51 56 58 63 69 68 70 72 68 64 70 70 68 69 72 72 69 69 70 70 70 71 72 73 73 73 72 72 72 72 73 73 73 72 72 71 71 72 72 73 72 71 70 69 69
64 62 53 51 53 59 64 66 69 67 66 68 69 63 64 68 72 71 70 71 70 69 70 70 69 71 72 73 72 72 71 71 71 72 72 72 72 72 71 70 70 71 71 71 71 70 69 69 68
59 57 50 49 54 63 66 68 68 66 67 67 66 64 61 69 68 69 71 71 73 70 71 71 70 70 71 71 71 70 70 70 70 71 71 72 71 71 70 70 70 70 70 70 70 69 69 69 68
54 53 49 52 56 61 66 70 64 66 65 66 70 59 62 65 66 68 69 70 71 71 69 68 68 69 69 69 69 69 69 70 70 70 70 70 69 69 70 70 70 70 70 70 70 69 68 68 68
60 57 49 54 57 57 70 69 66 68 63 71 71 59 58 64 67 67 66 66 66 65 65 64 65 65 64 65 68 68 69 69 69 69 69 69 69 69 69 69 69 70 70 70 69 69 68 68 67
63 53 48 54 57 61 71 66 67 68 67 66 65 66 70 67 67 63 61 61 61 64 62 62 63 63 63 64 67 68 69 69 68 68 69 66 64 64 65 67 67 69 69 69 68 68 67 66 65
57 48 54 65 66 63 68 65 67 65 61 60 62 67 68 66 64 62 61 60 60 61 62 62 62 62 63 69 64 64 66 65 64 65 64 63 63 62 65 65 67 67 67 67 67 67 66 65 59
56 56 63 67 70 73 68 64 65 61 56 62 62 62 65 65 65 64 64 64 64 65 65 64 63 62 63 66 63 62 62 62 63 64 63 62 63 61 61 60 60 59 63 60 61 60 59 59 58
58 66 66 65 69 67 63 64 63 60 64 67 69 67 66 65 65 66 65 66 65 65 66 66 64 63 62 62 62 62 63 63 63 63 63 60 59 59 59 58 58 57 57 57 57 57 58 58 59
60 61 63 66 68 65 68 63 65 59 64 69 70 69 68 68 67 69 70 70 68 67 68 66 65 63 63 63 62 62 63 63 63 63 63 61 60 59 58 58 58 58 57 57 57 57 57 57 58
65 61 62 64 66 65 64 60 60 59 63 66 68 68 68 69 69 68 68 68 67 70 66 63 64 64 65 63 63 62 62 63 63 62 62 62 60 59 58 57 58 57 56 56 56 56 55 55 56
65 58 60 59 59 60 63 56 56 60 65 65 67 68 67 69 68 69 67 68 68 69 67 62 63 64 63 64 63 62 62 62 61 61 61 61 60 58 58 57 56 56 56 55 55 55 54 54 55
58 55 50 59 61 59 59 52 58 61 63 61 64 64 63 64 65 65 67 66 67 65 61 62 66 63 63 62 61 60 60 59 58 58 58 59 60 58 56 56 55 54 54 54 53 52 52 51 50
51 46 49 54 60 58 56 52 58 59 63 61 57 56 59 57 58 60 62 67 66 65 61 60 62 61 61 60 60 59 58 58 57 57 57 58 59 58 56 54 53 53 53 51 51 51 50 49 49
47 48 42 50 53 56 52 51 54 55 57 55 51 53 54 54 55 59 59 59 61 61 61 61 61 61 60 58 58 58 58 57 56 56 57 58 58 58 55 55 52 52 51 50 49 49 49 48 48
55 50 48 49 56 54 49 48 50 52 52 51 52 53 53 54 56 58 58 58 58 58 60 61 59 59 58 57 55 56 53 54 55 58 60 57 58 56 52 51 51 50 49 48 48 47 47 47 47
55 51 48 53 58 54 50 47 51 54 52 53 53 53 53 54 56 57 57 56 56 57 57 56 57 58 57 56 54 54 54 56 59 59 55 54 53 53 53 49 49 48 48 47 46 45 44 44 45
51 48 48 51 53 53 52 47 49 55 55 55 54 54 55 54 54 56 56 54 54 55 56 58 58 58 58 57 56 58 59 57 54 52 52 52 52 51 50 48 47 46 46 44 43 43 42 41 43
47 54 54 53 48 41 48 34 45 49 49 52 52 50 51 54 56 55 54 53 54 53 55 57 58 58 58 57 56 56 54 53 50 48 48 48 49 49 50 48 47 45 44 43 44 44 40 40 38
51 55 52 50 45 43 45 38 42 49 45 47 48 52 54 54 55 54 54 55 55 54 54 54 56 57 57 55 54 52 51 49 48 47 47 48 49 51 48 49 48 46 43 42 42 40 39 39 38
57 53 50 47 44 34 43 40 39 43 47 48 51 52 55 54 52 54 55 55 53 52 52 52 53 52 52 51 50 49 48 47 47 49 50 50 48 46 49 48 44 44 42 41 40 39 39 38 39
53 45 33 32 30 31 45 40 41 49 52 52 52 52 51 52 51 52 56 56 52 51 51 52 52 51 51 50 50 49 49 49 49 50 49 47 44 43 43 43 42 42 42 41 40 39 38 37 36
47 45 32 33 28 32 44 35 41 51 54 56 54 53 52 50 54 54 53 51 50 51 50 51 51 51 51 51 51 50 49 49 49 48 46 44 42 42 42 42 42 42 42 41 39 38 37 37 35
48 41 47 35 31 29 36 41 50 51 51 53 52 52 49 49 49 50 51 50 49 49 50 50 50 50 51 51 49 49 49 49 47 47 43 42 42 44 42 42 43 43 41 41 39 37 36 36 35
52 53 39 34 28 29 34 36 36 45 48 49 47 47 47 49 49 49 49 49 49 49 50 50 51 51 51 49 48 49 47 47 46 44 42 42 42 45 44 44 43 43 42 40 38 37 36 35 35
47 43 42 40 33 27 24 32 45 47 48 46 45 47 47 47 48 48 51 51 50 50 50 48 48 48 47 47 46 45 45 45 44 42 41 42 42 41 42 43 43 42 41 38 37 37 35 34 33
49 45 43 30 34 28 27 32 48 47 48 49 48 50 48 49 48 51 51 51 52 49 48 48 46 46 46 46 45 45 45 44 42 41 41 41 43 42 42 42 42 40 40 38 37 35 35 33 31
MSLP
1012.77 1012.77 1012.13 1012.63 1014.17 1013.89 1013.53 1012.74 1011.95 1011.82 1012.03 1012.07 1012.19 1012.40 1013.64 1014.38 1014.95 1015.73 1015.29 1015.53 1015.87 1016.57 1016.74 1016.88 1016.96 1017.23 1017.57 1017.97 1018.30 1018.47 1018.54 1018.70 1018.86 1018.96 1019.09 1019.22 1019.26 1019.33 1019.46 1019.47 1019.32 1019.34 1019.35 1019.43 1019.54 1019.56 1019.53 1019.52 1019.39
1012.60 1012.86 1012.69 1013.20 1014.28 1014.10 1013.32 1012.35 1012.03 1011.54 1011.93 1011.97 1012.44 1012.90 1013.24 1014.32 1014.82 1015.74 1015.82 1015.89 1016.21 1016.26 1016.76 1017.06 1017.18 1017.47 1017.84 1018.20 1018.46 1018.61 1018.72 1018.95 1018.94 1019.09 1019.30 1019.47 1019.53 1019.59 1019.77 1019.80 1019.84 1019.65 1019.73 1019.78 1019.77 1019.79 1019.69 1020.27 1019.83
1012.75 1012.85 1013.34 1013.32 1014.21 1013.99 1012.77 1012.06 1011.63 1011.81 1011.83 1011.92 1013.08 1013.43 1014.14 1014.53 1014.91 1015.84 1015.83 1016.15 1016.59 1016.74 1016.87 1017.12 1017.54 1017.77 1018.12 1018.45 1018.68 1018.73 1018.97 1019.20 1019.21 1019.38 1019.44 1019.39 1019.52 1019.74 1019.79 1019.98 1020.00 1020.03 1019.96 1019.89 1019.88 1020.05 1020.07 1020.04 1020.01
1013.08 1013.09 1013.60 1013.51 1013.44 1012.86 1012.15 1011.37 1011.05 1011.77 1012.07 1012.05 1012.67 1014.12 1014.07 1014.49 1014.96 1015.45 1016.17 1016.32 1016.82 1017.29 1017.35 1017.38 1017.72 1018.09 1018.51 1018.75 1018.87 1018.98 1019.14 1019.29 1019.43 1019.57 1019.71 1019.76 1019.84 1019.83 1019.97 1020.12 1019.99 1020.09 1020.13 1020.36 1020.20 1020.40 1020.55 1020.21 1020.14
1013.07 1013.56 1013.88 1013.69 1012.78 1011.99 1011.67 1011.43 1011.29 1011.67 1012.23 1012.89 1012.47 1013.89 1014.87 1015.66 1015.52 1016.08 1016.71 1016.94 1016.95 1017.47 1017.62 1017.77 1018.10 1018.43 1018.67 1018.86 1018.96 1019.25 1019.32 1019.48 1019.65 1019.68 1019.72 1019.84 1020.18 1020.28 1020.47 1020.47 1020.38 1020.46 1020.20 1020.37 1020.14 1020.33 1020.62 1020.42 1020.28
1013.46 1013.85 1014.06 1013.56 1012.67 1011.74 1011.54 1011.67 1011.86 1012.19 1012.69 1012.74 1013.22 1014.12 1015.84 1016.18 1016.02 1016.70 1016.96 1017.26 1017.35 1017.46 1017.80 1018.04 1018.33 1018.58 1018.73 1019.00 1019.17 1019.29 1019.35 1019.48 1019.57 1019.72 1019.75 1019.88 1020.15 1020.31 1020.66 1020.60 1020.59 1020.74 1020.68 1020.71 1020.71 1020.53 1020.65 1020.43 1020.40
1013.42 1013.70 1013.84 1013.24 1012.52 1011.84 1011.50 1011.27 1011.81 1012.06 1012.55 1012.98 1013.32 1014.82 1016.13 1016.57 1016.89 1016.94 1017.31 1017.60 1017.66 1017.70 1017.95 1018.29 1018.55 1018.59 1018.90 1018.98 1019.23 1019.45 1019.38 1019.56 1019.67 1019.72 1019.90 1020.02 1020.44 1020.60 1020.53 1020.84 1020.64 1020.81 1020.71 1020.70 1021.19 1020.85 1020.75 1020.61 1020.58
1012.76 1013.28 1013.35 1012.88 1012.46 1012.37 1011.44 1011.66 1011.91 1011.92 1012.60 1012.93 1013.30 1014.69 1016.03 1016.40 1016.87 1017.35 1017.77 1017.90 1018.13 1018.27 1018.31 1018.40 1018.65 1018.87 1019.12 1019.20 1019.32 1019.34 1019.35 1019.63 1019.88 1020.20 1020.29 1020.36 1020.31 1020.75 1020.92 1021.04 1021.09 1021.01 1020.92 1020.86 1021.07 1021.15 1020.91 1020.80 1020.70
1012.48 1013.14 1013.11 1012.57 1012.26 1012.13 1012.04 1012.03 1012.22 1012.30 1012.73 1013.37 1013.60 1013.83 1014.82 1016.15 1016.97 1017.89 1018.35 1018.46 1018.72 1018.68 1018.55 1018.50 1018.77 1018.83 1019.02 1019.39 1019.44 1019.53 1019.60 1019.82 1020.02 1020.03 1020.23 1020.59 1020.59 1020.79 1021.07 1020.99 1021.15 1021.00 1021.01 1021.23 1021.03 1021.21 1021.09 1020.99 1020.85
1012.53 1013.03 1012.30 1011.27 1011.66 1011.51 1011.16 1011.71 1011.92 1012.72 1013.36 1013.96 1013.90 1014.70 1015.82 1016.55 1016.90 1017.61 1018.16 1018.37 1018.59 1018.63 1018.81 1018.80 1018.81 1019.00 1019.35 1019.35 1019.38 1019.61 1019.88 1020.01 1020.27 1020.32 1020.10 1020.51 1020.55 1020.72 1020.77 1020.76 1021.26 1021.30 1021.40 1021.30 1021.08 1021.10 1021.15 1021.02 1021.00
1012.01 1011.75 1011.09 1010.91 1010.67 1010.56 1011.06 1012.08 1011.93 1012.75 1013.66 1013.47 1014.24 1015.40 1016.27 1016.68 1016.94 1017.12 1017.66 1017.54 1017.62 1017.98 1018.58 1018.98 1019.08 1019.26 1019.17 1019.04 1019.32 1019.76 1020.02 1020.32 1020.31 1020.22 1020.23 1020.41 1020.67 1020.72 1020.82 1020.94 1021.18 1021.44 1021.58 1021.57 1021.25 1021.24 1021.43 1021.35 1021.21
1011.55 1010.62 1010.50 1010.26 1010.09 1010.60 1011.43 1011.52 1012.18 1012.27 1012.60 1012.93 1013.46 1014.43 1015.59 1016.16 1016.40 1016.53 1017.01 1017.21 1017.64 1017.93 1018.19 1018.58 1018.65 1018.98 1019.42 1019.34 1019.54 1019.54 1019.50 1019.80 1019.83 1019.99 1020.12 1020.38 1020.62 1020.92 1020.92 1021.06 1021.14 1021.56 1021.75 1021.77 1021.65 1021.46 1021.41 1021.47 1021.26
1011.08 1010.56 1010.31 1009.93 1010.09 1010.37 1010.81 1011.43 1011.78 1012.29 1012.64 1013.29 1013.95 1014.82 1015.12 1015.48 1015.77 1016.00 1016.12 1016.57 1017.16 1017.41 1017.82 1018.15 1018.43 1018.81 1018.89 1019.19 1019.29 1019.42 1019.70 1019.75 1019.81 1019.87 1020.11 1020.25 1020.42 1020.77 1021.15 1021.35 1021.13 1021.23 1021.34 1021.43 1021.45 1021.36 1021.16 1021.08 1020.97
1010.40 1010.73 1010.54 1010.32 1010.31 1010.60 1011.02 1011.52 1011.74 1012.84 1013.07 1013.87 1014.23 1014.63 1014.79 1015.00 1015.28 1016.22 1016.35 1016.34 1016.83 1017.26 1017.63 1018.03 1018.73 1018.70 1018.67 1018.95 1019.13 1019.29 1019.47 1019.75 1019.91 1019.90 1020.12 1020.43 1020.60 1021.09 1021.39 1021.38 1021.21 1021.31 1021.18 1021.29 1021.32 1021.25 1021.42 1021.50 1021.32
1010.54 1011.20 1010.95 1010.98 1010.80 1010.99 1011.20 1012.05 1012.32 1013.02 1013.71 1014.05 1014.35 1014.53 1015.03 1015.26 1015.64 1015.68 1016.24 1016.45 1016.89 1017.30 1018.08 1018.94 1018.77 1018.50 1018.68 1018.95 1019.02 1019.47 1019.53 1019.64 1020.06 1020.37 1020.63 1020.90 1020.88 1021.19 1021.47 1021.63 1021.64 1021.43 1021.35 1021.61 1021.56 1021.38 1021.32 1021.44 1021.32
1011.20 1011.74 1011.96 1011.39 1011.30 1011.79 1011.80 1012.42 1012.87 1013.52 1014.12 1014.75 1014.93 1015.36 1016.20 1016.65 1016.69 1016.53 1016.52 1016.76 1017.14 1017.73 1019.09 1019.42 1019.70 1019.92 1020.03 1020.55 1020.94 1020.86 1020.53 1020.45 1020.67 1020.82 1020.82 1021.04 1021.32 1021.59 1021.90 1021.96 1021.84 1021.64 1021.70 1021.71 1021.69 1021.67 1021.73 1021.74 1021.56
1012.22 1012.36 1012.19 1011.87 1011.66 1012.08 1012.51 1013.34 1013.72 1014.21 1014.63 1015.27 1016.36 1016.73 1017.07 1017.39 1017.43 1017.31 1017.14 1017.24 1017.91 1018.68 1019.65 1020.11 1020.26 1020.38 1020.62 1021.19 1021.64 1021.81 1021.31 1020.85 1021.18 1021.13 1021.35 1021.61 1021.71 1021.94 1022.09 1022.09 1022.11 1021.87 1022.01 1022.18 1022.22 1022.02 1022.15 1022.03 1021.80
1012.51 1012.48 1012.61 1012.43 1012.50 1012.81 1013.48 1014.38 1015.25 1015.21 1015.79 1016.79 1017.44 1017.77 1017.98 1018.15 1018.50 1018.13 1017.78 1018.34 1018.60 1019.13 1019.79 1020.56 1020.65 1020.99 1020.87 1021.18 1021.84 1022.03 1021.64 1021.91 1021.94 1021.87 1021.98 1022.20 1021.92 1021.96 1022.13 1022.26 1022.29 1022.40 1022.31 1022.35 1022.23 1022.28 1022.17 1022.19 1022.01
1012.01 1012.50 1012.84 1012.93 1012.82 1013.75 1015.57 1016.24 1016.93 1016.94 1017.18 1017.86 1018.46 1018.72 1018.89 1019.02 1019.32 1019.00 1018.84 1019.04 1019.47 1019.63 1020.27 1020.59 1021.21 1021.43 1021.48 1021.67 1021.92 1022.36 1022.74 1022.64 1022.52 1022.31 1022.49 1022.79 1022.51 1022.68 1022.52 1022.59 1022.75 1022.77 1022.88 1022.96 1022.74 1022.65 1022.58 1022.37 1022.06
1012.51 1012.88 1013.21 1013.48 1013.53 1014.52 1016.31 1017.50 1017.99 1017.99 1018.53 1018.79 1019.13 1019.48 1019.68 1019.88 1019.88 1019.74 1019.53 1019.84 1020.07 1020.61 1020.87 1021.08 1021.36 1021.39 1021.59 1021.71 1022.16 1022.45 1022.47 1022.45 1022.59 1022.75 1022.99 1023.14 1022.87 1022.75 1022.96 1022.98 1023.02 1022.96 1023.21 1023.40 1023.36 1023.35 1023.19 1022.90 1022.62
1013.39 1013.41 1013.32 1013.82 1014.77 1015.71 1016.19 1018.42 1018.96 1019.32 1019.47 1019.66 1020.03 1020.19 1020.36 1020.29 1020.50 1020.79 1020.60 1020.75 1020.82 1021.04 1021.15 1021.29 1021.52 1021.57 1021.69 1021.68 1021.82 1022.06 1022.12 1022.42 1022.83 1023.15 1023.26 1023.40 1023.33 1023.39 1023.28 1023.53 1023.50 1023.55 1023.55 1023.65 1023.91 1023.89 1023.75 1023.62 1023.12
1013.48 1013.50 1013.72 1014.36 1015.62 1016.66 1017.07 1019.82 1020.00 1020.34 1020.62 1020.68 1020.87 1020.84 1021.00 1021.11 1020.89 1021.19 1021.46 1021.43 1021.54 1021.70 1021.64 1021.67 1021.74 1021.95 1021.95 1021.79 1022.08 1022.29 1022.59 1022.92 1023.39 1023.63 1023.89 1023.89 1023.75 1023.94 1024.13 1023.83 1023.99 1024.50 1024.12 1023.88 1023.42 1023.82 1023.89 1023.74 1023.77
1013.88 1013.99 1014.64 1015.43 1016.61 1017.29 1018.27 1019.27 1020.09 1020.65 1021.00 1021.16 1021.35 1021.35 1021.48 1021.39 1021.44 1021.56 1021.86 1021.77 1021.81 1021.98 1022.30 1022.25 1022.24 1022.34 1022.53 1022.59 1022.76 1023.09 1023.43 1023.77 1023.95 1024.16 1024.44 1024.71 1024.49 1024.31 1023.79 1023.61 1023.67 1023.81 1023.98 1024.14 1024.03 1023.84 1023.83 1023.92 1023.99
1013.95 1014.91 1015.98 1016.98 1017.88 1018.79 1019.04 1019.35 1020.22 1020.19 1020.37 1021.08 1021.32 1021.60 1021.56 1020.99 1022.04 1021.95 1022.10 1022.27 1022.66 1022.57 1022.91 1022.98 1022.92 1023.09 1022.97 1023.04 1023.26 1023.55 1024.02 1024.32 1024.45 1024.31 1024.20 1024.07 1024.13 1023.67 1023.83 1023.63 1023.90 1023.86 1023.79 1023.83 1023.94 1023.92 1023.87 1023.81 1023.78
1014.49 1015.85 1017.51 1018.87 1019.35 1019.92 1019.40 1019.45 1019.39 1019.47 1019.76 1020.60 1020.99 1021.37 1021.56 1021.71 1022.13 1022.29 1022.36 1022.84 1023.04 1023.16 1023.52 1023.45 1023.41 1023.84 1023.85 1023.85 1023.92 1024.00 1024.09 1024.07 1024.07 1023.98 1023.95 1023.98 1023.97 1023.99 1023.92 1023.79 1023.73 1023.60 1023.56 1023.62 1023.72 1023.75 1023.75 1023.73 1023.78
1015.23 1016.32 1017.83 1019.51 1020.61 1020.60 1019.88 1019.90 1019.47 1019.24 1019.66 1020.24 1020.77 1021.12 1021.84 1022.59 1022.79 1022.79 1022.84 1023.10 1023.48 1023.62 1023.95 1023.93 1023.86 1023.95 1023.93 1023.95 1024.03 1024.02 1023.97 1023.95 1023.88 1023.77 1023.68 1023.68 1023.73 1023.56 1023.54 1023.54 1023.34 1023.33 1023.36 1023.51 1023.71 1023.71 1023.62 1023.48 1023.39
1015.53 1016.80 1017.88 1019.86 1021.68 1021.54 1021.28 1020.59 1019.83 1019.93 1020.23 1020.59 1020.99 1021.75 1022.34 1022.82 1022.94 1023.01 1023.31 1023.64 1023.99 1024.09 1024.13 1024.03 1024.00 1024.16 1024.16 1024.11 1024.12 1024.06 1023.93 1023.81 1023.67 1023.51 1023.44 1023.41 1023.51 1023.63 1024.21 1024.57 1024.64 1024.06 1023.47 1023.52 1023.28 1023.47 1023.47 1023.46 1023.31
1015.38 1016.87 1018.38 1020.09 1022.06 1022.71 1022.15 1021.33 1020.43 1020.40 1020.63 1020.85 1021.57 1022.22 1022.99 1023.17 1023.34 1023.57 1023.85 1024.26 1024.28 1024.01 1023.92 1023.91 1023.87 1023.99 1024.11 1024.16 1024.15 1024.15 1024.08 1023.98 1023.74 1023.55 1023.38 1023.33 1023.29 1023.43 1023.64 1023.85 1023.85 1023.86 1023.42 1023.25 1023.24 1023.09 1022.90 1023.19 1023.12
1016.34 1017.30 1019.01 1020.68 1022.26 1023.03 1022.86 1021.50 1019.91 1020.00 1020.44 1021.11 1021.83 1022.47 1022.91 1023.35 1023.64 1023.94 1024.00 1023.87 1024.19 1024.20 1024.21 1024.22 1024.30 1024.39 1024.42 1024.45 1024.38 1024.22 1024.11 1023.96 1023.76 1023.63 1023.65 1023.85 1023.84 1023.73 1023.50 1023.27 1023.44 1023.30 1023.09 1022.78 1022.92 1022.73 1022.76 1022.89 1022.94
1016.67 1017.65 1019.09 1021.43 1022.97 1023.57 1023.21 1021.37 1019.95 1020.08 1020.65 1021.08 1021.91 1022.31 1022.80 1023.34 1023.59 1023.70 1023.72 1024.01 1024.26 1024.56 1024.56 1024.58 1024.68 1024.63 1024.57 1024.42 1024.28 1024.21 1024.10 1023.96 1023.79 1023.68 1023.64 1023.46 1023.22 1022.94 1022.96 1022.82 1022.72 1022.84 1022.83 1022.58 1022.56 1022.52 1022.81 1022.84 1022.83
Wind_Speed
1 4 2 5 3 3 3 5 2 2 4 4 6 6 7 5 3 0 4 7 15 10 9 11 15 16 15 15 14 13 14 14 14 13 13 13 13 14 14 15 15 14 14 14 13 13 13 11 12
1 2 3 4 4 1 4 2 6 6 11 7 8 7 5 5 6 7 7 12 11 11 8 10 14 15 14 14 13 13 14 13 13 13 13 13 14 14 13 13 12 13 13 13 12 12 13 11 12
2 1 3 5 3 4 4 4 6 11 9 7 4 3 2 6 10 6 9 14 10 8 8 11 13 14 13 12 12 12 12 12 12 12 13 13 13 12 12 11 11 11 11 11 12 12 12 12 13
3 3 4 4 5 7 4 6 10 9 6 6 17 4 3 3 5 8 13 13 11 7 7 11 12 13 13 12 12 11 12 11 11 11 12 12 11 11 10 9 9 9 10 10 11 11 10 9 10
3 3 3 2 3 5 6 3 7 6 5 6 2 6 4 3 13 14 12 11 13 10 8 9 11 12 13 13 13 11 11 10 10 11 11 10 9 8 8 8 8 7 8 7 9 9 9 10 9
3 2 4 2 1 3 5 6 4 4 2 9 10 7 3 7 14 11 12 11 13 12 9 9 12 12 11 11 11 10 10 10 10 10 9 10 9 8 6 6 5 6 6 7 8 8 8 8 8
4 3 4 2 3 5 3 6 2 10 7 5 9 6 4 2 7 10 13 13 11 11 9 6 6 9 10 10 10 10 11 10 9 8 8 7 7 6 6 3 4 4 4 6 7 7 7 8 8
4 4 0 2 8 4 9 3 2 8 2 6 8 7 9 6 11 10 8 11 8 6 7 6 5 5 6 6 11 10 10 9 8 6 6 6 6 3 2 1 2 2 3 4 5 7 9 9 9
3 4 1 3 8 7 14 5 3 2 9 1 2 6 14 15 14 10 7 5 5 4 5 5 6 6 6 6 6 7 8 8 8 7 7 3 2 0 1 2 2 4 5 6 6 7 7 9 10
4 4 7 4 8 6 9 3 9 5 2 5 9 12 15 15 16 14 11 10 7 7 6 7 7 7 6 5 5 5 4 3 4 3 3 2 2 3 3 3 4 5 8 8 7 7 8 7 4
5 5 5 6 7 15 12 5 3 11 3 7 17 16 15 15 12 14 11 15 16 12 8 8 5 5 7 5 4 3 3 2 2 4 3 3 2 2 2 1 1 1 5 4 4 5 3 6 4
2 7 2 4 7 7 10 6 6 3 9 10 22 23 17 14 14 15 15 13 11 11 11 10 8 7 5 2 4 4 4 4 4 4 4 3 3 2 2 1 1 2 2 3 3 2 3 4 5
3 3 1 5 8 6 6 5 6 2 6 12 17 18 19 17 15 14 15 13 11 13 12 11 8 7 6 6 4 4 4 3 3 4 4 4 3 3 2 1 3 3 2 3 4 4 4 5 5
7 1 5 3 7 5 6 2 1 4 8 12 18 18 17 18 17 10 10 12 11 12 11 7 6 7 7 6 7 5 4 5 4 3 2 1 3 3 3 3 3 3 2 1 2 2 3 4 4
7 5 4 2 1 2 4 2 3 6 11 16 17 17 13 13 9 15 9 10 10 8 7 5 6 6 6 4 4 4 3 3 2 3 5 5 5 5 4 3 3 2 3 3 3 3 3 4 3
4 6 4 5 3 3 4 8 1 10 14 13 13 9 2 4 4 3 7 6 7 7 8 4 5 9 10 10 8 5 4 4 4 4 5 7 6 6 4 3 4 4 3 3 4 3 3 3 3
7 3 2 3 4 3 3 5 5 6 13 11 6 7 6 6 9 5 6 3 7 9 10 7 7 10 9 9 7 4 3 5 4 5 5 6 6 4 4 4 4 5 4 5 3 3 3 3 4
3 2 2 5 3 4 2 5 8 5 9 8 8 8 8 9 8 7 13 11 11 13 12 8 5 5 6 8 3 1 6 6 4 5 5 6 5 6 6 5 6 5 4 5 5 4 3 2 2
2 3 3 2 2 9 5 9 10 8 12 11 9 10 11 12 8 10 11 10 12 10 9 5 6 2 2 3 3 3 3 2 3 4 6 7 5 5 6 5 5 5 5 4 4 3 3 3 3
6 6 2 2 8 12 10 12 9 11 7 10 11 11 11 11 12 12 12 11 10 8 6 8 5 6 4 3 2 2 3 1 4 4 5 4 6 7 6 5 5 6 5 8 6 6 4 3 4
4 2 2 5 6 5 11 10 9 7 10 11 8 9 9 11 12 8 9 8 6 7 7 7 7 7 6 6 3 2 3 3 2 2 3 5 6 6 8 8 6 6 5 5 4 6 7 4 3
3 2 3 4 6 5 4 2 4 4 6 6 6 6 7 9 9 7 5 6 7 4 3 4 5 4 3 3 3 2 2 1 2 2 2 4 7 7 6 6 5 3 2 3 4 3 2 3 3
3 1 2 2 4 5 4 7 4 5 2 4 4 6 7 8 8 8 6 7 6 4 4 6 7 7 6 7 6 5 4 4 3 3 5 6 4 4 4 5 4 4 3 3 4 4 5 2 1
1 5 7 5 3 4 4 6 6 6 6 4 3 4 8 11 5 6 4 6 6 6 7 6 8 7 8 8 8 8 8 4 3 1 2 3 3 3 1 4 3 3 3 2 2 3 3 2 3
5 6 3 4 4 5 5 4 5 4 14 8 11 7 6 6 7 6 7 6 7 8 6 6 7 7 6 7 6 6 5 5 5 4 3 4 3 2 4 4 4 2 2 2 1 2 3 3 3
3 4 6 5 4 4 4 1 4 4 9 9 8 10 6 5 5 7 9 8 7 8 7 6 6 6 5 4 2 1 3 3 4 4 4 4 4 4 5 5 4 4 4 3 3 2 3 4 3
1 4 3 8 3 4 2 2 5 3 6 8 10 7 7 7 6 8 8 7 7 6 5 5 6 4 3 2 2 4 4 5 6 7 5 4 4 2 2 4 6 6 3 5 3 3 5 3 4
5 4 4 5 3 2 2 4 5 8 7 3 7 10 7 7 8 7 7 5 4 3 3 4 3 2 3 4 5 5 6 6 6 5 6 6 4 2 1 3 5 6 5 4 4 3 3 4 4
4 3 6 6 4 5 2 7 5 9 8 8 8 8 9 8 7 7 6 5 2 1 4 4 4 4 4 5 5 5 5 6 6 5 5 3 3 2 2 5 6 6 6 4 4 5 5 3 2
1 3 5 6 3 1 4 7 2 7 9 12 13 14 10 8 7 6 5 5 3 1 1 3 3 5 4 3 5 6 6 6 6 4 2 4 7 6 6 5 5 6 6 5 5 4 2 1 2
Wind_Direction
149 265 22 55 47 45 275 270 47 266 62 5 51 92 106 61 32 144 146 123 129 140 137 130 124 125 126 125 129 127 121 115 109 103 99 93 88 81 77 75 72 71 70 68 64 62 58 51 44
84 262 14 88 75 73 252 186 141 121 130 94 60 51 37 84 73 118 119 131 134 133 132 124 120 122 124 130 132 126 120 120 115 110 104 96 88 84 81 77 72 69 64 59 55 51 52 36 35
205 280 89 111 146 194 222 182 159 128 150 107 55 58 48 117 113 145 136 135 134 113 122 122 117 119 123 127 128 122 122 120 118 114 108 106 102 98 92 86 78 69 63 56 51 41 35 30 24
190 2 33 102 213 248 229 177 140 125 66 21 126 15 49 60 142 148 139 135 120 106 111 115 114 116 121 121 119 128 131 124 119 118 115 110 111 112 106 98 87 73 59 45 42 39 34 34 26
39 34 89 209 262 267 107 191 126 119 106 164 149 134 68 15 112 119 126 129 128 117 118 117 113 118 126 136 140 135 127 127 128 126 125 124 125 122 116 104 88 75 64 46 45 38 30 27 20
20 131 51 285 231 351 75 81 117 97 158 105 90 85 40 153 126 124 125 129 137 128 122 121 131 138 142 140 138 139 139 140 141 139 138 143 144 136 125 112 96 71 50 35 35 35 27 27 20
146 95 200 277 158 43 349 71 120 126 143 131 140 97 126 167 125 123 133 137 136 132 132 132 146 148 145 141 147 155 154 152 146 149 158 155 153 148 134 115 91 76 41 25 10 13 12 10 7
120 87 120 245 111 88 339 30 177 151 157 111 144 156 170 179 133 120 124 128 128 130 144 149 140 136 146 158 169 164 154 147 148 160 170 165 146 138 126 90 23 13 354 355 346 352 347 348 348
96 64 222 213 150 171 176 205 184 9 130 307 351 114 142 138 127 124 127 98 109 146 160 153 162 170 168 171 179 161 158 159 165 170 178 158 110 129 271 265 315 317 307 307 326 325 325 329 328
103 119 232 220 141 173 184 184 144 117 134 27 73 74 126 140 144 146 155 152 163 180 189 198 181 173 167 170 168 158 163 164 174 175 175 197 219 222 230 241 296 303 306 302 301 297 300 309 303
185 217 186 192 179 169 183 197 101 122 345 179 143 142 151 154 161 150 164 171 180 184 184 195 189 188 179 172 162 145 145 175 200 177 192 217 233 247 252 12 352 0 317 321 331 339 337 323 313
206 262 224 191 169 129 158 151 121 156 188 169 152 158 159 168 172 165 173 181 179 178 189 192 190 175 201 151 174 178 167 186 186 196 200 168 138 109 99 91 87 50 6 354 352 359 332 321 308
207 252 335 103 106 119 109 146 186 221 138 151 143 158 170 175 181 176 180 184 177 185 192 191 181 176 181 182 179 176 201 205 189 188 193 169 142 132 137 86 72 69 49 40 15 359 353 360 354
173 244 124 41 120 136 118 113 74 51 121 143 159 176 182 184 185 166 189 190 180 187 184 166 171 184 178 188 180 193 182 210 196 193 191 114 108 95 67 59 54 40 52 44 91 69 26 10 1
115 78 38 37 59 129 122 61 192 133 150 158 180 186 188 201 185 191 180 190 176 189 152 120 162 180 180 175 174 160 175 173 173 82 61 66 73 85 87 55 10 8 18 19 36 42 56 30 6
85 52 102 281 124 31 97 254 210 146 148 186 192 195 76 31 21 70 168 177 177 135 103 77 57 41 39 22 6 360 41 47 62 66 76 76 75 73 60 20 360 358 16 26 24 26 8 20 23
12 153 156 321 198 51 105 253 334 161 176 182 72 71 77 60 32 15 54 119 80 84 83 51 35 64 45 41 33 359 38 70 74 79 73 81 77 53 41 29 9 20 37 33 358 11 21 346 351
226 152 186 214 187 66 275 358 4 28 94 111 89 83 76 71 39 60 81 74 82 89 80 67 53 16 80 89 110 307 60 42 39 58 54 25 44 49 53 45 39 29 32 15 12 6 344 294 283
88 105 150 262 38 76 47 40 16 30 77 94 86 82 80 70 64 62 69 81 79 65 76 72 74 51 48 99 95 20 38 343 38 56 34 38 59 66 62 50 42 28 34 0 1 333 329 318 343
70 115 79 128 40 86 71 37 35 37 56 86 96 88 85 89 79 78 79 80 75 80 81 102 119 131 131 89 99 162 204 131 80 58 56 63 56 48 57 62 42 37 22 9 3 2 330 314 0
35 73 58 109 57 36 86 36 16 22 63 79 67 84 86 103 96 79 87 95 101 102 109 107 116 123 134 142 141 81 56 72 92 67 57 31 47 43 44 36 44 43 49 47 9 8 16 337 329
44 333 50 66 90 174 77 123 10 27 59 77 94 100 108 117 122 111 111 103 108 112 109 106 100 92 71 65 68 116 171 140 44 71 57 57 53 50 51 80 79 62 93 79 68 48 40 21 347
187 108 109 83 94 87 35 89 238 134 100 139 156 154 145 134 148 138 144 140 157 138 75 47 43 29 33 39 37 37 46 44 54 47 46 71 46 44 91 110 91 94 81 77 74 50 43 43 309
109 88 41 52 84 54 305 130 219 180 194 177 171 165 183 137 162 138 140 87 69 59 57 58 69 47 56 65 60 72 82 77 64 86 130 142 182 179 158 99 122 126 118 85 49 13 353 308 297
70 75 13 9 14 200 311 67 221 200 155 171 175 182 193 162 162 134 111 88 69 64 79 83 80 74 73 83 91 114 140 168 191 207 209 204 218 194 200 177 188 159 148 180 207 265 288 289 285
52 133 149 183 182 227 0 70 277 161 143 172 173 174 170 136 108 120 105 97 86 91 88 91 95 99 87 81 79 175 214 222 227 234 228 226 216 201 201 210 197 193 204 224 242 266 270 268 285
157 50 148 106 1 68 261 35 5 50 154 165 166 113 106 107 104 90 84 86 97 105 125 119 109 126 157 199 253 264 257 243 239 240 226 219 212 211 285 324 312 286 264 263 248 259 281 303 286
111 141 52 6 124 182 272 216 219 196 200 184 108 123 122 99 88 88 91 113 150 119 72 67 62 18 334 324 323 300 290 290 279 264 243 224 216 249 151 280 267 273 267 257 257 265 278 259 257
359 43 61 106 108 152 172 259 216 190 173 152 129 132 131 126 133 139 148 121 77 62 49 45 29 351 327 318 305 319 317 311 293 273 290 332 351 321 288 247 262 261 254 238 251 253 257 222 321
162 124 107 109 228 40 142 277 29 145 153 147 157 157 151 141 137 139 127 142 127 63 95 82 56 62 33 356 5 354 322 317 313 322 303 200 204 210 215 256 270 264 254 243 247 264 205 268 322